NOAA 16 DEB, 41409

Orbit data source: Space-Track

NOAA 16 DEB, 41409 is space debris in SSO originally from a launch on Thu, 21 Sep 2000 UTC launched from the Air Force Western Test Range (AFWTR). Debris objects in space refer to the collection of defunct objects orbiting the Earth. Examples of debris include non-operational satellites, rocket bodies, and fragments generated from explosions, collisions, or faulty payload assembly.

Loading next visibility...
Identifier
41409, 2000-055KN
Orbit
SSO
Country
Flag of USUS
Related business
Manufacturer
Unknown
Mission
Spacecraft
Bus & Motor
Unknown
Mass
Unknown
Launch date (UTC)
2000-09-21 (25 years ago)
Launch vehicle
Unknown
Launch site
Air Force Western Test Range (AFWTR)
Object type
Payload
Rocket body
Debris
Shape & HBR
Unknown shape, 0.1 m
Radar Cross Section
Small (<0.1 m²)

Expand to show TLE details & history
Last TLE update: 7 hours ago

TLE from 7 hours ago
0 NOAA 16 DEB
1 41409U 00055KN  26038.18558369  .00009768  00000-0  29728-2 0  9992
2 41409  98.6415 123.8873 0027257 228.3004 131.5853 14.42024131517222
Epoch: 2026-02-07T04:27Z
TLE epoch observation values (Epoch: 2026-02-07T04:27:14.430Z)
Latitude
-0.00001°
Longitude
-80.23556°
Altitude
767.697 km
Speed
7.464 km/s
True Right ascension
08h 15m 32s
True Declination
0° 00' 00"
Sunlit
Object was in full shadow at epoch
Visualization orbit readout
Latitude
Unknown
Longitude
Unknown
Altitude
Unknown
Speed
Unknown
Apparent Right ascension
Unknown
Apparent Declination
Unknown
Sunlit
N/A
Visualization observer readout
Local Sidereal Time
14:03:05
Azimuth
Unknown
Elevation
Unknown
Doppler factor
Unknown
Orbital elements
Apogee altitude
768.371 km
Perigee altitude
729.518 km
Semi-major axis
7,127.081 km
Eccentricity
0.00273
Inclination
98.6415°
RAAN
123.8873°
Arg. of periapsis
228.3004°
True anomaly
131.81839°
Mean anomaly
131.5853°
Eccentric anomaly
131.7019°
Mean motion
3.60724 °/min
Orbital period
99.8 mins
BSTAR
0.0029728
Loading maneuver chart data...
Computing Atmospheric mass density...
Loading historical data...
Loading historical data...
Loading historical data...
Loading historical data...
Loading historical data...
Loading historical data...
Loading historical data...

Documentation

Showing up to 5 results
|